Location: Newark
(45.5000°N, 11.4167°E)
Time: 19:49:10
(UTC+00:00)

A-11 Canister half - Pass Details

Date: 20 August 2019
Orbit: 1514 x 1686 km, 47.2° (Epoch: 14 October)

Event Time Altitude Azimuth Distance (km) Brightness Sun altitude
Rises 20:52:48 0° 275° (W) 4,746 12.2 -23.6°
Reaches altitude 10° 20:55:50 10° 276° (W) 3,783 11.6 -23.9°
Maximum altitude 21:05:32 82° 5° (N) 1,643 9.1 -25.0°
Enters shadow 21:13:25 19° 92° (E) 3,243 10.4 -25.7°
Drops below altitude 10° 21:15:37 10° 94° (E) 3,915 - -26.0°
Sets 21:18:49 0° 95° (E) 4,917 - -26.3°
